COSMOS 1275 DEB, 13019

Orbit data source: Space-Track

COSMOS 1275 DEB, 13019 is space debris in LEO originally from a launch on Thu, 04 Jun 1981 UTC launched from the Plesetsk Missile And Space Complex (PKMTR). Debris objects in space refer to the collection of defunct objects orbiting the Earth. Examples of debris include non-operational satellites, rocket bodies, and fragments generated from explosions, collisions, or faulty payload assembly.

Loading next visibility...
Identifier
13019, 1981-053ER
Orbit
LEO
Country
Flag of CISCIS
Related business
Manufacturer
Unknown
Mission
Spacecraft
Bus & Motor
Unknown
Mass
Unknown
Launch date (UTC)
1981-06-04 (45 years ago)
Launch vehicle
Unknown
Launch site
Plesetsk Missile And Space Complex (PKMTR)
Object type
Payload
Rocket body
Debris
Shape & HBR
Unknown shape, 0.1 m
Radar Cross Section
Medium (>0.1 m² and <1 m²)

Expand to show TLE details & history
Last TLE update: 1 day ago

TLE from 1 day ago
0 COSMOS 1275 DEB
1 13019U 81053ER  26255.10638934  .00000964  00000-0  60489-3 0  9994
2 13019  82.9418  21.1911 0068651  53.9853 121.5568 14.02369024258578
Epoch: 2026-09-12T02:33Z
TLE epoch observation values (Epoch: 2026-09-12T02:33:12.038Z)
Latitude
3.66816°
Longitude
171.31837°
Altitude
914.49 km
Speed
7.382 km/s
True Right ascension
13h 22m 57s
True Declination
3° 38' 48"
Sunlit
Object was in daylight at epoch
Visualization orbit readout
Latitude
Unknown
Longitude
Unknown
Altitude
Unknown
Speed
Unknown
Apparent Right ascension
Unknown
Apparent Declination
Unknown
Sunlit
N/A
Visualization observer readout
Local Sidereal Time
21:44:44
Azimuth
Unknown
Elevation
Unknown
Doppler factor
Unknown
Orbital elements
Apogee altitude
932.56 km
Perigee altitude
832.868 km
Semi-major axis
7,260.851 km
Eccentricity
0.00687
Inclination
82.9418°
RAAN
21.1911°
Arg. of periapsis
53.9853°
True anomaly
122.22414°
Mean anomaly
121.5568°
Eccentric anomaly
121.89077°
Mean motion
3.50802 °/min
Orbital period
102.62 mins
BSTAR
0.00060489
Loading maneuver chart data...
Computing Atmospheric mass density...
Loading historical data...
Loading historical data...
Loading historical data...
Loading historical data...
Loading historical data...
Loading historical data...
Loading historical data...

Documentation

Showing up to 5 results
|